TimeEST,TemperatureF,Dew PointF,Humidity,Sea Level PressureIn,VisibilityMPH,Wind Direction,Wind SpeedMPH,Gust SpeedMPH,PrecipitationIn,Events,Conditions,WindDirDegrees,DateUTC
12:14 AM,28.0,22.5,80,29.91,10.0,SW,5.8,-,N/A,,Overcast,220,2012-11-25 05:14:00
12:35 AM,30.6,23.0,74,29.90,10.0,SSW,13.8,20.7,N/A,,Overcast,210,2012-11-25 05:35:00
12:55 AM,30.6,23.4,75,29.89,7.0,SW,13.8,18.4,N/A,Snow,Light Snow,220,2012-11-25 05:55:00
1:14 AM,28.9,23.9,81,29.89,5.0,SW,11.5,18.4,N/A,Snow,Light Snow,220,2012-11-25 06:14:00
1:35 AM,28.0,24.8,88,29.88,2.0,SSW,8.1,-,N/A,Snow,Light Snow,210,2012-11-25 06:35:00
1:55 AM,28.0,25.3,90,29.88,3.0,South,3.5,-,N/A,Snow,Light Snow,170,2012-11-25 06:55:00
2:14 AM,28.0,25.3,90,29.87,4.0,South,5.8,-,N/A,Snow,Light Snow,190,2012-11-25 07:14:00
2:35 AM,28.0,25.3,90,29.87,4.0,South,3.5,-,N/A,Snow,Light Snow,190,2012-11-25 07:35:00
2:55 AM,28.0,25.5,90,29.86,2.5,South,3.5,-,N/A,Snow,Light Snow,190,2012-11-25 07:55:00
3:14 AM,28.0,25.5,90,29.85,2.5,South,4.6,-,N/A,Snow,Light Snow,190,2012-11-25 08:14:00
3:35 AM,28.0,25.7,91,29.83,3.0,South,4.6,-,N/A,Snow,Light Snow,180,2012-11-25 08:35:00
3:55 AM,27.9,25.7,92,29.82,4.0,South,4.6,-,N/A,Snow,Light Snow,170,2012-11-25 08:55:00
4:14 AM,28.0,25.7,91,29.81,5.0,South,3.5,-,N/A,Snow,Light Snow,180,2012-11-25 09:14:00
4:35 AM,28.0,25.7,91,29.80,7.0,South,4.6,-,N/A,Snow,Light Snow,170,2012-11-25 09:35:00
4:55 AM,28.0,25.7,91,29.79,10.0,Calm,Calm,-,N/A,,Overcast,0,2012-11-25 09:55:00
5:14 AM,28.0,25.7,91,29.78,5.0,Calm,Calm,-,N/A,Snow,Light Snow,0,2012-11-25 10:14:00
5:35 AM,28.0,25.7,91,29.78,7.0,South,3.5,-,N/A,Snow,Light Snow,180,2012-11-25 10:35:00
5:55 AM,28.0,25.7,91,29.77,4.0,South,4.6,-,N/A,Snow,Light Snow,170,2012-11-25 10:55:00
6:14 AM,28.0,25.7,91,29.77,3.0,SSE,4.6,-,N/A,Snow,Light Snow,160,2012-11-25 11:14:00
6:35 AM,28.0,25.7,91,29.76,10.0,SE,3.5,-,N/A,,Overcast,130,2012-11-25 11:35:00
6:55 AM,28.0,25.3,90,29.76,10.0,Calm,Calm,-,N/A,,Overcast,0,2012-11-25 11:55:00
7:14 AM,28.0,25.3,90,29.75,10.0,Calm,Calm,-,N/A,,Overcast,0,2012-11-25 12:14:00
7:35 AM,28.0,25.2,89,29.75,10.0,Calm,Calm,-,N/A,Snow,Light Snow,0,2012-11-25 12:35:00
7:55 AM,28.0,25.2,89,29.74,7.0,Calm,Calm,-,N/A,Snow,Light Snow,0,2012-11-25 12:55:00
8:14 AM,28.0,25.2,89,29.74,10.0,SSE,4.6,-,N/A,,Overcast,160,2012-11-25 13:14:00
8:35 AM,28.0,25.2,89,29.74,7.0,NE,3.5,-,N/A,Snow,Light Snow,40,2012-11-25 13:35:00
8:55 AM,28.0,25.7,91,29.75,0.8,Calm,Calm,-,N/A,Snow,Light Snow,0,2012-11-25 13:55:00
9:14 AM,28.0,26.2,93,29.74,0.5,Calm,Calm,-,N/A,Snow,Light Snow,0,2012-11-25 14:14:00
9:35 AM,28.0,26.4,94,29.74,0.8,Calm,Calm,-,N/A,Snow,Light Snow,0,2012-11-25 14:35:00
9:55 AM,28.0,26.4,94,29.74,3.0,Calm,Calm,-,N/A,Snow,Light Snow,0,2012-11-25 14:55:00
10:14 AM,28.4,26.8,94,29.74,0.5,South,3.5,-,N/A,Snow,Snow,190,2012-11-25 15:14:00
10:35 AM,28.8,27.3,94,29.74,0.8,NE,3.5,-,N/A,Snow,Light Snow,50,2012-11-25 15:35:00
10:55 AM,29.5,28.0,94,29.74,7.0,Calm,Calm,-,N/A,Snow,Light Snow,0,2012-11-25 15:55:00
11:14 AM,30.4,28.4,92,29.74,10.0,Calm,Calm,-,N/A,,Overcast,0,2012-11-25 16:14:00
11:35 AM,30.6,27.7,89,29.74,7.0,Calm,Calm,-,N/A,Snow,Light Snow,0,2012-11-25 16:35:00
11:55 AM,30.6,28.0,90,29.73,7.0,Calm,Calm,-,N/A,Snow,Light Snow,0,2012-11-25 16:55:00
12:14 PM,30.4,27.9,90,29.73,10.0,Calm,Calm,-,N/A,,Overcast,0,2012-11-25 17:14:00
12:35 PM,30.6,27.9,90,29.72,10.0,Calm,Calm,-,N/A,,Overcast,0,2012-11-25 17:35:00
12:54 PM,30.0,27.3,90,29.72,10.0,Calm,Calm,-,N/A,Snow,Light Snow,0,2012-11-25 17:54:00
1:14 PM,30.4,28.0,91,29.72,7.0,Calm,Calm,-,N/A,Snow,Light Snow,0,2012-11-25 18:14:00
1:35 PM,30.6,27.9,90,29.72,10.0,West,4.6,-,N/A,,Overcast,280,2012-11-25 18:35:00
1:54 PM,32.9,27.0,79,29.72,10.0,West,9.2,18.4,N/A,,Overcast,270,2012-11-25 18:54:00
2:15 PM,32.9,26.4,77,29.72,10.0,West,11.5,18.4,N/A,,Overcast,280,2012-11-25 19:15:00
2:35 PM,32.9,26.2,76,29.72,10.0,West,11.5,21.9,N/A,,Overcast,270,2012-11-25 19:35:00
2:54 PM,32.9,27.0,79,29.73,10.0,West,8.1,16.1,N/A,,Overcast,270,2012-11-25 19:54:00
3:15 PM,32.9,26.4,77,29.73,10.0,WNW,10.4,-,N/A,,Overcast,290,2012-11-25 20:15:00
3:35 PM,32.9,26.4,77,29.74,10.0,West,12.7,18.4,N/A,,Overcast,280,2012-11-25 20:35:00
3:54 PM,32.9,26.6,78,29.75,10.0,West,6.9,21.9,N/A,Snow,Light Snow,270,2012-11-25 20:54:00
4:15 PM,32.9,27.0,79,29.76,10.0,West,9.2,16.1,N/A,,Overcast,280,2012-11-25 21:15:00
4:35 PM,32.9,26.6,78,29.76,10.0,WNW,11.5,17.3,N/A,Snow,Light Snow,290,2012-11-25 21:35:00
4:54 PM,32.9,26.8,78,29.77,10.0,West,9.2,21.9,N/A,,Overcast,280,2012-11-25 21:54:00
5:15 PM,32.9,26.6,78,29.78,10.0,West,6.9,-,N/A,,Overcast,270,2012-11-25 22:15:00
5:35 PM,32.9,26.4,77,29.79,10.0,West,6.9,-,N/A,,Overcast,280,2012-11-25 22:35:00
5:54 PM,32.9,25.7,75,29.79,10.0,West,6.9,-,N/A,,Overcast,280,2012-11-25 22:54:00
6:15 PM,32.9,25.9,75,29.79,10.0,West,8.1,-,N/A,,Overcast,270,2012-11-25 23:15:00
6:35 PM,32.9,25.7,75,29.80,10.0,West,13.8,19.6,N/A,,Overcast,280,2012-11-25 23:35:00
6:54 PM,32.9,25.2,73,29.81,10.0,West,12.7,18.4,N/A,,Overcast,280,2012-11-25 23:54:00
7:15 PM,32.9,24.8,72,29.82,10.0,West,8.1,17.3,N/A,,Overcast,270,2012-11-26 00:15:00
7:34 PM,32.9,23.9,69,29.83,10.0,West,13.8,21.9,N/A,,Overcast,280,2012-11-26 00:34:00
7:55 PM,32.9,23.2,67,29.83,10.0,WNW,11.5,18.4,N/A,,Overcast,290,2012-11-26 00:55:00
8:15 PM,32.9,23.0,67,29.83,10.0,West,11.5,18.4,N/A,,Overcast,280,2012-11-26 01:15:00
8:34 PM,32.9,25.5,74,29.84,7.0,West,8.1,-,N/A,Snow,Light Snow,280,2012-11-26 01:34:00
8:55 PM,32.9,24.4,71,29.84,10.0,West,15.0,23.0,N/A,,Overcast,280,2012-11-26 01:55:00
9:15 PM,32.7,23.5,69,29.84,10.0,West,12.7,20.7,N/A,,Overcast,280,2012-11-26 02:15:00
9:34 PM,32.0,23.2,70,29.85,10.0,WNW,13.8,17.3,N/A,,Overcast,290,2012-11-26 02:34:00
9:55 PM,31.1,22.1,69,29.86,10.0,WNW,12.7,18.4,N/A,Snow,Light Snow,290,2012-11-26 02:55:00
10:14 PM,30.6,22.5,72,29.86,10.0,WNW,12.7,24.2,N/A,,Overcast,290,2012-11-26 03:14:00
10:34 PM,30.2,23.9,77,29.88,5.0,NW,12.7,21.9,N/A,Snow,Light Snow,310,2012-11-26 03:34:00
10:55 PM,29.1,24.1,81,29.88,4.0,WNW,9.2,-,N/A,Snow,Light Snow,290,2012-11-26 03:55:00
11:14 PM,29.7,22.1,73,29.89,10.0,WNW,8.1,16.1,N/A,Snow,Light Snow,290,2012-11-26 04:14:00
11:34 PM,29.5,21.2,71,29.90,10.0,West,10.4,20.7,N/A,,Overcast,280,2012-11-26 04:34:00
11:55 PM,29.5,21.0,71,29.91,10.0,WNW,10.4,-,N/A,,Overcast,300,2012-11-26 04:55:00